When you browse on this site, cookies collect data to enhance your experience and personalize the content and advertising you see.
Visit our Privacy Policy to learn more. By continuing to use the site, you agree to this use of cookies and data.
  • în România
  • Lista ţărilor
  • Pe 7 zile
  • Temperatura apei
  • Meteo pe hartă
  • Widget-uri
  • user-avatar
    Intrare

    Meteo pe oră la Albany

    Astăzi, 2 Iunie, Marţi

    Timp Temperatura Precipitaţii Vânt Presiune Umiditate
    00:00 +13°C° 0 mm 1 m/s 767 mmHg 82%
    01:00 +13°C° 0 mm 1 m/s 767 mmHg 84%
    02:00 +12°C° 0 mm 2 m/s 766 mmHg 84%
    03:00 +12°C° 0 mm 1 m/s 766 mmHg 85%
    04:00 +12°C° 0 mm 1 m/s 766 mmHg 86%
    05:00 +11°C° 0 mm 1 m/s 766 mmHg 87%
    06:00 +12°C° 0 mm 1 m/s 766 mmHg 87%
    07:00 +12°C° 0 mm 2 m/s 766 mmHg 86%
    08:00 +13°C° 0 mm 2 m/s 767 mmHg 86%
    09:00 +14°C° 0 mm 2 m/s 767 mmHg 79%
    10:00 +16°C° 0 mm 2 m/s 767 mmHg 72%
    11:00 +18°C° 0 mm 2 m/s 767 mmHg 65%
    12:00 +18°C° 0 mm 2 m/s 766 mmHg 62%
    13:00 +19°C° 0 mm 2 m/s 765 mmHg 59%
    14:00 +20°C° 0 mm 2 m/s 764 mmHg 57%
    15:00 +19°C° 0 mm 2 m/s 765 mmHg 62%
    16:00 +18°C° 0 mm 2 m/s 765 mmHg 66%
    17:00 +17°C° 0 mm 2 m/s 765 mmHg 71%
    18:00 +16°C° 0 mm 3 m/s 765 mmHg 74%
    19:00 +14°C° 0 mm 3 m/s 765 mmHg 77%
    20:00 +14°C° 0 mm 3 m/s 766 mmHg 79%
    21:00 +13°C° 0 mm 3 m/s 766 mmHg 79%
    22:00 +13°C° 0 mm 3 m/s 766 mmHg 79%
    23:00 +12°C° 0 mm 3 m/s 765 mmHg 79%

    Mâine, 3 Iunie, Miercuri

    Timp Temperatura Precipitaţii Vânt Presiune Umiditate
    00:00 +12°C° 0 mm 3 m/s 765 mmHg 79%
    01:00 +12°C° 0 mm 3 m/s 765 mmHg 78%
    02:00 +12°C° 0 mm 3 m/s 765 mmHg 78%
    03:00 +12°C° 0 mm 3 m/s 765 mmHg 76%
    04:00 +12°C° 0 mm 3 m/s 765 mmHg 75%
    05:00 +12°C° 0 mm 3 m/s 765 mmHg 73%
    06:00 +12°C° 0 mm 3 m/s 765 mmHg 73%
    07:00 +12°C° 0 mm 3 m/s 765 mmHg 73%
    08:00 +12°C° 0 mm 3 m/s 765 mmHg 73%
    09:00 +14°C° 0 mm 3 m/s 764 mmHg 67%
    10:00 +17°C° 0 mm 4 m/s 764 mmHg 61%
    11:00 +19°C° 0 mm 4 m/s 764 mmHg 55%
    12:00 +20°C° 0 mm 3 m/s 763 mmHg 53%
    13:00 +21°C° 0 mm 3 m/s 763 mmHg 52%
    14:00 +23°C° 0 mm 2 m/s 762 mmHg 50%
    15:00 +21°C° 0 mm 2 m/s 762 mmHg 55%
    16:00 +19°C° 0 mm 2 m/s 762 mmHg 60%
    17:00 +18°C° 0 mm 2 m/s 763 mmHg 65%
    18:00 +17°C° 0 mm 2 m/s 763 mmHg 66%
    19:00 +16°C° 0 mm 2 m/s 763 mmHg 67%
    20:00 +15°C° 0 mm 2 m/s 763 mmHg 68%
    21:00 +15°C° 0 mm 2 m/s 763 mmHg 68%
    22:00 +15°C° 0 mm 2 m/s 763 mmHg 69%
    23:00 +14°C° 0 mm 3 m/s 763 mmHg 69%

    Poimâine, 4 Iunie, Joi

    Timp Temperatura Precipitaţii Vânt Presiune Umiditate
    00:00 +13°C° 0 mm 3 m/s 763 mmHg 70%
    01:00 +14°C° 0 mm 2 m/s 762 mmHg 71%
    02:00 +14°C° 0 mm 2 m/s 762 mmHg 71%
    03:00 +14°C° 0 mm 2 m/s 762 mmHg 71%
    04:00 +14°C° 0 mm 2 m/s 762 mmHg 71%
    05:00 +14°C° 0 mm 2 m/s 763 mmHg 71%
    06:00 +14°C° 0 mm 2 m/s 763 mmHg 72%
    07:00 +14°C° 0 mm 2 m/s 763 mmHg 72%
    08:00 +14°C° 0 mm 2 m/s 763 mmHg 73%
    09:00 +16°C° 0 mm 1 m/s 763 mmHg 70%
    10:00 +19°C° 0 mm 1 m/s 763 mmHg 66%
    11:00 +21°C° 0 mm 1 m/s 763 mmHg 62%
    12:00 +20°C° 0 mm 2 m/s 763 mmHg 62%
    13:00 +20°C° 0 mm 2 m/s 763 mmHg 63%
    14:00 +20°C° 0 mm 2 m/s 762 mmHg 63%
    15:00 +19°C° 0.1 mm 3 m/s 763 mmHg 70%
    16:00 +18°C° 0.1 mm 3 m/s 763 mmHg 76%
    17:00 +16°C° 0.1 mm 3 m/s 764 mmHg 83%
    18:00 +16°C° 0 mm 3 m/s 764 mmHg 85%
    19:00 +14°C° 0 mm 3 m/s 764 mmHg 87%
    20:00 +15°C° 0 mm 2 m/s 765 mmHg 89%
    21:00 +14°C° 0 mm 2 m/s 765 mmHg 89%
    22:00 +14°C° 0 mm 2 m/s 765 mmHg 89%
    23:00 +14°C° 0 mm 2 m/s 765 mmHg 90%

    5 Iunie, Vineri

    Timp Temperatura Precipitaţii Vânt Presiune Umiditate
    00:00 +14°C° 0 mm 2 m/s 765 mmHg 89%
    01:00 +14°C° 0 mm 1 m/s 765 mmHg 89%
    02:00 +13°C° 0 mm 1 m/s 765 mmHg 89%
    03:00 +13°C° 0 mm 2 m/s 766 mmHg 89%
    04:00 +13°C° 0 mm 2 m/s 766 mmHg 89%
    05:00 +13°C° 0 mm 2 m/s 766 mmHg 88%
    06:00 +13°C° 0 mm 2 m/s 766 mmHg 88%
    07:00 +13°C° 0 mm 2 m/s 766 mmHg 88%
    08:00 +14°C° 0 mm 2 m/s 767 mmHg 87%
    09:00 +15°C° 0 mm 2 m/s 767 mmHg 82%
    10:00 +17°C° 0 mm 3 m/s 767 mmHg 76%
    11:00 +18°C° 0 mm 3 m/s 767 mmHg 70%
    12:00 +18°C° 0 mm 3 m/s 767 mmHg 70%
    13:00 +19°C° 0 mm 3 m/s 766 mmHg 70%
    14:00 +19°C° 0 mm 3 m/s 765 mmHg 69%
    15:00 +18°C° 0 mm 3 m/s 766 mmHg 73%
    16:00 +17°C° 0 mm 3 m/s 766 mmHg 77%
    17:00 +16°C° 0 mm 3 m/s 766 mmHg 81%
    18:00 +16°C° 0 mm 3 m/s 766 mmHg 82%
    19:00 +16°C° 0 mm 3 m/s 766 mmHg 84%
    20:00 +16°C° 0 mm 3 m/s 766 mmHg 85%
    21:00 +16°C° 0 mm 3 m/s 766 mmHg 85%
    22:00 +16°C° 0 mm 3 m/s 766 mmHg 86%
    23:00 +14°C° 0 mm 3 m/s 766 mmHg 86%

    6 Iunie, Sâmbătă

    Timp Temperatura Precipitaţii Vânt Presiune Umiditate
    00:00 +14°C° 0 mm 3 m/s 765 mmHg 88%
    01:00 +14°C° 0 mm 3 m/s 765 mmHg 90%
    02:00 +13°C° 0 mm 3 m/s 764 mmHg 92%
    03:00 +13°C° 0 mm 3 m/s 764 mmHg 93%
    04:00 +14°C° 0 mm 2 m/s 764 mmHg 93%
    05:00 +13°C° 0 mm 2 m/s 764 mmHg 93%
    06:00 +14°C° 0 mm 2 m/s 764 mmHg 93%
    07:00 +14°C° 0 mm 2 m/s 764 mmHg 93%
    08:00 +14°C° 0 mm 1 m/s 763 mmHg 93%
    09:00 +16°C° 0 mm 1 m/s 763 mmHg 86%
    10:00 +18°C° 0 mm 1 m/s 763 mmHg 80%
    11:00 +19°C° 0 mm 2 m/s 762 mmHg 73%
    12:00 +20°C° 0 mm 1 m/s 762 mmHg 69%
    13:00 +21°C° 0 mm 1 m/s 761 mmHg 66%
    14:00 +21°C° 0 mm 1 m/s 760 mmHg 62%
    15:00 +20°C° 0 mm 1 m/s 760 mmHg 69%
    16:00 +19°C° 0 mm 1 m/s 760 mmHg 75%
    17:00 +18°C° 0 mm 1 m/s 760 mmHg 81%
    18:00 +16°C° 0 mm 1 m/s 760 mmHg 81%
    19:00 +16°C° 0 mm 2 m/s 760 mmHg 80%
    20:00 +15°C° 0 mm 2 m/s 760 mmHg 79%
    21:00 +15°C° 0 mm 2 m/s 760 mmHg 78%
    22:00 +15°C° 0 mm 2 m/s 759 mmHg 76%
    23:00 +14°C° 0 mm 3 m/s 759 mmHg 74%

    7 Iunie, Duminică

    Timp Temperatura Precipitaţii Vânt Presiune Umiditate
    00:00 +15°C° 0.1 mm 2 m/s 759 mmHg 76%
    01:00 +15°C° 0.1 mm 2 m/s 759 mmHg 78%
    02:00 +15°C° 0.1 mm 2 m/s 759 mmHg 79%
    03:00 +15°C° 0.3 mm 2 m/s 758 mmHg 82%
    04:00 +15°C° 0.3 mm 1 m/s 758 mmHg 86%
    05:00 +15°C° 0.3 mm 1 m/s 758 mmHg 89%
    06:00 +15°C° 0.1 mm 2 m/s 758 mmHg 90%
    07:00 +15°C° 0.1 mm 2 m/s 758 mmHg 90%
    08:00 +15°C° 0.1 mm 2 m/s 759 mmHg 91%
    09:00 +16°C° 0 mm 2 m/s 758 mmHg 87%
    10:00 +17°C° 0 mm 2 m/s 758 mmHg 84%
    11:00 +18°C° 0 mm 3 m/s 758 mmHg 80%
    12:00 +18°C° 0 mm 3 m/s 758 mmHg 77%
    13:00 +19°C° 0 mm 3 m/s 758 mmHg 74%
    14:00 +19°C° 0 mm 3 m/s 758 mmHg 71%
    15:00 +19°C° 0 mm 3 m/s 758 mmHg 73%
    16:00 +18°C° 0 mm 3 m/s 758 mmHg 75%
    17:00 +17°C° 0 mm 2 m/s 759 mmHg 78%
    18:00 +16°C° 0 mm 2 m/s 759 mmHg 81%
    19:00 +16°C° 0 mm 2 m/s 759 mmHg 85%
    20:00 +15°C° 0 mm 2 m/s 760 mmHg 88%
    21:00 +13°C° 0 mm 3 m/s 760 mmHg 90%
    22:00 +13°C° 0 mm 3 m/s 760 mmHg 91%
    23:00 +12°C° 0 mm 3 m/s 760 mmHg 92%
    Arată mai mult